User: anonymous   Login
Location: Vancouver
(49.2500°N, 123.1330°W)
Time: 02:27:45
(UTC-07:00)
Language:

SO-67 - Orbit

View from above orbital plane
View from above orbital plane
View from above satellite
View from above satellite

Ground track
Ground track

The orbit data is extracted from the following two-line orbital elements,

1 35870U 09049F   18172.81844366 +.00005988 +00000-0 +81315-4 0  9996
2 35870 097.0808 191.9124 0003377 109.6020 302.3116 15.57995637490693
Epoch (UTC): 21 June 2018 19:38:33
Eccentricity: 0.0003377
inclination: 97.0808°
perigee height: 391 km
apogee height: 396 km
right ascension of ascending node: 191.9124°
argument of perigee: 109.6020°
revolutions per day: 15.57995637
mean anomaly at epoch: 302.3116°
orbit number at epoch: 49069

The dashed part of the orbit path shows where the satellite is in the earth's shadow,  

DLR